Franklin, PA

4:32 PM EST on December 10, 2019 (GMT -0500)
Venango Regional

Weather History for KFKL - November, 2019

Change the Weather History Date:

Tuesday, November 12, 2019

  Actual Average Record
Temperature  
Mean Temperature 21 °F -  
Max Temperature 28 °F 47 °F 70 °F (1927)
Min Temperature 12 °F 34 °F 12 °F (1926)
Degree Days  
Heating Degree Days 44    
Moisture  
Dew Point 19 °F    
Average Humidity 85    
Maximum Humidity 100    
Minimum Humidity 63    
Precipitation  
Precipitation 0.07 in - - ()
Sea Level Pressure  
Sea Level Pressure 30.09 in    
Wind  
Wind Speed 6 mph (NW)    
Max Wind Speed 13 mph    
Max Gust Speed 21 mph    
Visibility 5 miles    
Events Snow    
Averages and records for this station are not official NWS values.
T = Trace of Precipitation, MM = Missing Value Source: NWS Daily Summary

Daily Weather History Graph

Daily Weather History Graph

Search for Another Location

Airport or City:

Astronomy

Nov. 12, 2019 Rise Set
Actual Time 7:03 AM EST 5:02 PM EST
Civil Twilight 6:34 AM EST 5:32 PM EST
Nautical Twilight 6:01 AM EST 6:05 PM EST
Astronomical Twilight 5:28 AM EST 6:37 PM EST
Moon 5:29 PM EST (11/12) 6:53 AM EST (11/12)
Length of Visible Light 10h 57m
Length of Day
9h 58m
Full, 100% of the Moon is Illuminated
Nov 12
Full
Nov 19
Last Quarter
Nov 26
New
Dec 4
First Quarter
Dec 12
Full

Hourly Weather History & Observations

Time (EST) Temp. Windchill Dew Point Humidity Pressure Visibility Wind Dir Wind Speed Gust Speed Precip Events Conditions
12:17 AM 26.6 °F 17.5 °F 26.6 °F 100% 29.86 in 2.0 mi North 9.2 mph - 0.01 in Snow Light Snow
12:26 AM 26.6 °F 18.2 °F 24.8 °F 93% 29.86 in 1.5 mi North 8.1 mph - 0.02 in Snow Light Snow
12:56 AM 25.0 °F 17.1 °F 24.1 °F 96% 29.92 in 1.8 mi North 6.9 mph - 0.02 in Snow Light Snow
1:05 AM 24.8 °F 16.9 °F 24.8 °F 100% 29.87 in 2.0 mi Variable 6.9 mph - 0.01 in Snow Light Snow
1:16 AM 24.8 °F 16.1 °F 23.0 °F 93% 29.87 in 1.5 mi North 8.1 mph - 0.01 in Snow Light Snow
1:52 AM 24.8 °F 17.9 °F 23.0 °F 93% 29.90 in 2.5 mi Variable 5.8 mph - 0.02 in Snow Light Snow
1:56 AM 25.0 °F 19.3 °F 23.0 °F 92% 29.95 in 2.5 mi Variable 4.6 mph - 0.02 in Snow Light Snow
2:23 AM 24.8 °F 19.1 °F 23.0 °F 93% 29.92 in 3.0 mi Variable 4.6 mph - 0.01 in Snow Light Snow
2:35 AM 24.8 °F 16.9 °F 23.0 °F 93% 29.92 in 2.5 mi NNW 6.9 mph - 0.01 in Snow Light Snow
2:51 AM 24.8 °F 19.1 °F 23.0 °F 93% 29.92 in 5.0 mi Variable 4.6 mph - 0.01 in Snow Light Snow
2:56 AM 25.0 °F - 23.0 °F 92% 29.97 in 6.0 mi Calm Calm - 0.01 in Snow Light Snow
3:13 AM 24.8 °F 17.9 °F 23.0 °F 93% 29.93 in 8.0 mi Variable 5.8 mph - 0.00 in Snow Light Snow
3:56 AM 25.0 °F 19.3 °F 23.0 °F 92% 29.99 in 9.0 mi Variable 4.6 mph - 0.00 in Snow Light Snow
4:56 AM 25.0 °F - 23.0 °F 92% 30.01 in 9.0 mi Calm Calm - 0.00 in Snow Light Snow
5:20 AM 24.8 °F 20.5 °F 24.8 °F 100% 29.97 in 5.0 mi Variable 3.5 mph - 0.00 in Snow Light Snow
5:24 AM 24.8 °F 20.5 °F 24.8 °F 100% 29.97 in 6.0 mi Variable 3.5 mph - 0.00 in Snow Light Snow
5:41 AM 24.8 °F 19.1 °F 23.0 °F 93% 29.98 in 8.0 mi Variable 4.6 mph - 0.00 in Snow Light Snow
5:56 AM 25.0 °F - 23.0 °F 92% 30.04 in 8.0 mi Calm Calm - 0.00 in Snow Light Snow
6:40 AM 24.8 °F 19.1 °F 23.0 °F 93% 30.00 in 5.0 mi NNW 4.6 mph - 0.01 in Snow Light Snow
6:56 AM 25.0 °F 20.7 °F 23.0 °F 92% 30.06 in 4.0 mi Variable 3.5 mph - 0.01 in Snow Light Snow
7:00 AM 24.8 °F 17.9 °F 23.0 °F 93% 30.01 in 5.0 mi NW 5.8 mph - 0.00 in Snow Light Snow
7:07 AM 24.8 °F 19.1 °F 23.0 °F 93% 30.01 in 5.0 mi Variable 4.6 mph - 0.00 in Snow Light Snow
7:56 AM 25.0 °F 18.1 °F 23.0 °F 92% 30.09 in 5.0 mi NNW 5.8 mph - 0.00 in Snow Light Snow
8:11 AM 24.8 °F 19.1 °F 23.0 °F 93% 30.04 in 6.0 mi WNW 4.6 mph - 0.00 in Snow Light Snow
8:56 AM 25.0 °F 17.1 °F 21.9 °F 88% 30.12 in 8.0 mi Variable 6.9 mph - 0.00 in Snow Light Snow
9:14 AM 24.8 °F 16.9 °F 21.2 °F 86% 30.06 in 1.2 mi NNW 6.9 mph - 0.00 in Snow Light Snow
9:18 AM 24.8 °F 19.1 °F 21.2 °F 86% 30.06 in 1.2 mi NNW 4.6 mph - 0.00 in Snow Light Snow
9:34 AM 24.8 °F 20.5 °F 21.2 °F 86% 30.06 in 8.0 mi Variable 3.5 mph - 0.00 in Snow Light Snow
9:54 AM 28.4 °F 19.7 °F 21.2 °F 74% 30.06 in 2.0 mi NNW 9.2 mph - 0.00 in Snow Light Snow
9:56 AM 28.0 °F 20.0 °F 23.0 °F 81% 30.12 in 1.8 mi NNW 8.1 mph - 0.00 in Snow Light Snow
10:05 AM 26.6 °F 18.2 °F 21.2 °F 80% 30.06 in 1.0 mi North 8.1 mph - 0.00 in Snow Light Snow
10:08 AM 26.6 °F 18.2 °F 21.2 °F 80% 30.06 in 0.8 mi NNW 8.1 mph - 0.00 in Snow Light Snow
10:19 AM 24.8 °F 17.9 °F 21.2 °F 86% 30.07 in 2.0 mi North 5.8 mph - 0.00 in Snow Light Snow
10:32 AM 26.6 °F 19.1 °F 21.2 °F 80% 30.07 in 7.0 mi Variable 6.9 mph - 0.00 in Snow Light Snow
10:39 AM 24.8 °F 16.9 °F 19.4 °F 80% 30.07 in 6.0 mi NNW 6.9 mph - 0.00 in Snow Light Snow
10:56 AM 26.1 °F 17.6 °F 19.9 °F 78% 30.13 in 9.0 mi NNW 8.1 mph - 0.00 in   Overcast
11:56 AM 28.9 °F 20.4 °F 19.0 °F 67% 30.14 in 3.0 mi NNW 9.2 mph - 0.00 in Snow Light Snow
12:04 PM 26.6 °F 19.1 °F 17.6 °F 69% 30.07 in 2.5 mi Variable 6.9 mph - 0.00 in Snow Light Snow
12:11 PM 26.6 °F 20.0 °F 19.4 °F 74% 30.07 in 9.0 mi Variable 5.8 mph - 0.00 in Snow Light Snow
12:18 PM 26.6 °F 19.1 °F 19.4 °F 74% 30.07 in 9.0 mi Variable 6.9 mph - 0.00 in Snow Light Snow
12:32 PM 28.4 °F 18.5 °F 19.4 °F 69% 30.08 in 1.8 mi NNW 11.5 mph 20.7 mph 0.00 in Snow Light Snow
12:39 PM 24.8 °F 14.0 °F 17.6 °F 74% 30.08 in 1.0 mi NW 11.5 mph 20.7 mph 0.00 in Snow Light Snow
12:43 PM 24.8 °F 17.9 °F 15.8 °F 69% 30.08 in 2.5 mi NW 5.8 mph 18.4 mph 0.00 in Snow Light Snow
12:56 PM 25.0 °F 16.3 °F 17.1 °F 72% 30.15 in 9.0 mi NNW 8.1 mph - 0.00 in   Overcast
1:11 PM 26.6 °F 19.1 °F 17.6 °F 69% 30.09 in 4.0 mi Variable 6.9 mph 20.7 mph 0.00 in Snow Light Snow
1:21 PM 26.6 °F 17.5 °F 17.6 °F 69% 30.09 in 9.0 mi NW 9.2 mph - 0.00 in   Overcast
1:28 PM 26.6 °F 19.1 °F 17.6 °F 69% 30.09 in 9.0 mi Variable 6.9 mph - 0.00 in Snow Light Snow
1:56 PM 28.0 °F 19.3 °F 17.1 °F 63% 30.17 in 9.0 mi NNW 9.2 mph - 0.00 in   Overcast
2:25 PM 24.8 °F 14.0 °F 14.0 °F 64% 30.11 in 9.0 mi NW 11.5 mph 18.4 mph 0.00 in Snow Light Snow
2:56 PM 25.0 °F 17.1 °F 16.0 °F 69% 30.19 in 9.0 mi Variable 6.9 mph - 0.00 in   Overcast
3:56 PM 21.9 °F 12.5 °F 14.0 °F 72% 30.22 in 10.0 mi NNW 8.1 mph - 0.00 in   Overcast
4:21 PM 21.2 °F 12.6 °F 15.8 °F 80% 30.15 in 10.0 mi Variable 6.9 mph - N/A   Overcast
4:56 PM 19.9 °F 13.4 °F 12.9 °F 74% 30.24 in 9.0 mi Variable 4.6 mph - 0.00 in Snow Light Snow
5:44 PM 19.4 °F 12.8 °F 15.8 °F 86% 30.18 in 2.5 mi Variable 4.6 mph - 0.00 in Snow Light Snow
5:48 PM 19.4 °F 9.5 °F 15.8 °F 86% 30.18 in 1.5 mi NW 8.1 mph - 0.00 in Snow Light Snow
5:54 PM 19.4 °F 12.8 °F 15.8 °F 86% 30.19 in 1.0 mi NW 4.6 mph - 0.00 in Snow Light Snow
5:56 PM 19.9 °F 13.4 °F 15.1 °F 81% 30.26 in 1.0 mi NW 4.6 mph - 0.00 in Snow Light Snow
6:16 PM 19.4 °F 14.3 °F 15.8 °F 86% 30.19 in 1.5 mi NW 3.5 mph - 0.00 in Snow Light Snow
6:20 PM 19.4 °F 14.3 °F 15.8 °F 86% 30.19 in 2.0 mi NW 3.5 mph - 0.00 in Snow Light Snow
6:35 PM 19.4 °F 10.4 °F 15.8 °F 86% 30.20 in 5.0 mi NW 6.9 mph - 0.00 in Snow Light Snow
6:56 PM 19.0 °F 9.0 °F 16.0 °F 88% 30.28 in 3.0 mi WNW 8.1 mph - 0.01 in Snow Light Snow
7:03 PM 19.4 °F 12.8 °F 17.6 °F 93% 30.21 in 2.0 mi WNW 4.6 mph - 0.00 in Snow Light Snow
7:10 PM 19.4 °F 11.5 °F 17.6 °F 93% 30.21 in 1.5 mi WNW 5.8 mph - 0.00 in Snow Light Snow
7:17 PM 19.4 °F 9.5 °F 17.6 °F 93% 30.22 in 1.5 mi WNW 8.1 mph - 0.00 in Snow Light Snow
7:32 PM 19.4 °F 6.6 °F 15.8 °F 86% 30.22 in 2.0 mi NW 12.7 mph 19.6 mph 0.00 in Snow Light Snow
7:42 PM 19.4 °F 8.6 °F 15.8 °F 86% 30.22 in 4.0 mi NW 9.2 mph - 0.00 in Snow Light Snow
7:53 PM 17.6 °F 7.3 °F 15.8 °F 93% 30.22 in 9.0 mi WNW 8.1 mph - 0.00 in Snow Light Snow
7:56 PM 18.0 °F 7.7 °F 15.1 °F 88% 30.30 in 9.0 mi WNW 8.1 mph - 0.00 in Snow Light Snow
8:56 PM 14.0 °F 6.5 °F 12.0 °F 92% 30.32 in 10.0 mi West 4.6 mph - 0.00 in   Clear
9:56 PM 14.0 °F 8.2 °F 12.0 °F 92% 30.32 in 10.0 mi West 3.5 mph - 0.00 in   Scattered Clouds
10:56 PM 14.0 °F 2.9 °F 12.0 °F 92% 30.33 in 9.0 mi WSW 8.1 mph - 0.00 in Snow Light Snow
11:56 PM 12.9 °F 1.6 °F 10.9 °F 92% 30.32 in 10.0 mi WSW 8.1 mph - 0.00 in   Partly Cloudy